Weather History for Soldotna, AK

Change the Weather History Date:

Monday, May 21, 2012

  Actual Average Record
Temperature  
Mean Temperature 50 °F -  
Max Temperature 60 °F 53 °F 75 °F (2002)
Min Temperature 39 °F 36 °F 26 °F (1985)
Degree Days  
Heating Degree Days 16    
Moisture  
Dew Point 38 °F    
Average Humidity 66    
Maximum Humidity 93    
Minimum Humidity 39    
Precipitation  
Precipitation 0.00 in - - ()
Sea Level Pressure  
Sea Level Pressure 29.61 in    
Wind  
Wind Speed 3 mph (NW)    
Max Wind Speed 14 mph    
Max Gust Speed 18 mph    
Visibility 10 miles    
Events      
Averages and records for this station are not official NWS values.
T = Trace of Precipitation, MM = Missing Value Source: NWS Daily Summary

Daily Weather History Graph

Daily Weather History Graph

Search for Another Location

Airport:

Trip Planner

Search our weather history database for the weather conditions in past years. The results will help you decide how hot, cold, wet, or windy it might be!

Date:

Astronomy

May. 21, 2012 Rise Set
Actual Time 5:07 AM AKDT 10:55 PM AKDT
Civil Twilight 3:54 AM AKDT 12:10 AM AKDT
Nautical Twilight Sun does not rise Sun does not rise
Astronomical Twilight Sun does not rise Sun does not rise
Moon 5:33 AM AKDT (5/21) No Moon Set
Length of Visible Light 20h 16m
Length of Day
17h 48m
New Moon, 1% of the Moon is Illuminated
May 21
New Moon
May 28
First Quarter
Jun 4
Full
Jun 11
Last Quarter
Jun 19
New

Hourly Weather History & Observations

Time (AKDT) Temp. Windchill Dew Point Humidity Pressure Visibility Wind Dir Wind Speed Gust Speed Precip Events Conditions
12:16 AM 46.4 °F 43.5 °F 37.4 °F 71% 29.73 in 10.0 mi ENE 5.8 mph - N/A   Mostly Cloudy
12:36 AM 44.6 °F - 37.4 °F 76% 29.72 in 10.0 mi Calm Calm - N/A   Overcast
12:56 AM 44.6 °F - 35.6 °F 71% 29.71 in 10.0 mi Calm Calm - N/A   Overcast
1:16 AM 44.6 °F 43.1 °F 39.2 °F 81% 29.71 in 10.0 mi NE 3.5 mph - N/A   Overcast
1:36 AM 44.6 °F - 35.6 °F 71% 29.71 in 10.0 mi Calm Calm - N/A   Overcast
1:56 AM 42.8 °F - 37.4 °F 81% 29.71 in 10.0 mi Calm Calm - N/A   Overcast
2:16 AM 44.6 °F 43.1 °F 35.6 °F 71% 29.70 in 10.0 mi East 3.5 mph - N/A   Overcast
2:36 AM 44.6 °F 42.2 °F 37.4 °F 76% 29.70 in 10.0 mi NE 4.6 mph - N/A   Mostly Cloudy
2:56 AM 42.8 °F - 35.6 °F 76% 29.70 in 10.0 mi Calm Calm - N/A   Mostly Cloudy
3:16 AM 41.0 °F - 35.6 °F 81% 29.69 in 10.0 mi Calm Calm - N/A   Mostly Cloudy
3:36 AM 41.0 °F - 35.6 °F 81% 29.69 in 10.0 mi Calm Calm - N/A   Overcast
3:56 AM 41.0 °F - 37.4 °F 87% 29.69 in 10.0 mi Calm Calm - N/A   Overcast
4:16 AM 41.0 °F - 35.6 °F 81% 29.68 in 10.0 mi Calm Calm - N/A   Mostly Cloudy
4:36 AM 41.0 °F - 37.4 °F 87% 29.68 in 10.0 mi Calm Calm - N/A   Overcast
4:56 AM 41.0 °F - 37.4 °F 87% 29.68 in 10.0 mi Calm Calm - N/A   Overcast
5:16 AM 39.2 °F - 37.4 °F 93% 29.67 in 10.0 mi Calm Calm - N/A   Mostly Cloudy
5:36 AM 39.2 °F - 37.4 °F 93% 29.67 in 10.0 mi Calm Calm - N/A   Overcast
5:56 AM 39.2 °F - 37.4 °F 93% 29.66 in 10.0 mi Calm Calm - N/A   Overcast
6:16 AM 39.2 °F - 37.4 °F 93% 29.66 in 10.0 mi Calm Calm - N/A   Overcast
6:36 AM 39.2 °F - 37.4 °F 93% 29.66 in 10.0 mi Calm Calm - N/A   Overcast
6:56 AM 39.2 °F - 37.4 °F 93% 29.65 in 10.0 mi Calm Calm - N/A   Overcast
7:16 AM 41.0 °F - 39.2 °F 93% 29.65 in 10.0 mi Calm Calm - N/A   Overcast
7:36 AM 41.0 °F - 39.2 °F 93% 29.65 in 10.0 mi Calm Calm - N/A   Overcast
7:56 AM 42.8 °F 41.1 °F 39.2 °F 87% 29.65 in 10.0 mi ENE 3.5 mph - N/A   Overcast
8:16 AM 42.8 °F - 39.2 °F 87% 29.65 in 10.0 mi Calm Calm - N/A   Overcast
8:36 AM 44.6 °F - 39.2 °F 81% 29.64 in 10.0 mi Calm Calm - N/A   Overcast
8:56 AM 46.4 °F - 39.2 °F 76% 29.63 in 10.0 mi Calm Calm - N/A   Overcast
9:16 AM 46.4 °F 45.2 °F 39.2 °F 76% 29.63 in 10.0 mi North 3.5 mph - N/A   Mostly Cloudy
9:36 AM 48.2 °F - 37.4 °F 66% 29.62 in 10.0 mi North 3.5 mph - N/A   Overcast
9:56 AM 48.2 °F - 37.4 °F 66% 29.62 in 10.0 mi WNW 4.6 mph - N/A   Overcast
10:16 AM 48.2 °F - 37.4 °F 66% 29.61 in 10.0 mi NW 4.6 mph - N/A   Mostly Cloudy
10:36 AM 51.8 °F - 37.4 °F 58% 29.61 in 10.0 mi North 3.5 mph - N/A   Scattered Clouds
10:56 AM 51.8 °F - 37.4 °F 58% 29.60 in 10.0 mi NNE 4.6 mph - N/A   Clear
11:16 AM 51.8 °F - 35.6 °F 54% 29.60 in 10.0 mi NNE 5.8 mph - N/A   Clear
11:36 AM 53.6 °F - 35.6 °F 51% 29.59 in 10.0 mi North 6.9 mph - N/A   Clear
11:56 AM 53.6 °F - 35.6 °F 51% 29.59 in 10.0 mi North 5.8 mph - N/A   Clear
12:16 PM 53.6 °F - 35.6 °F 51% 29.58 in 10.0 mi NE 4.6 mph - N/A   Clear
12:36 PM 55.4 °F - 35.6 °F 47% 29.58 in 10.0 mi Calm Calm - N/A   Partly Cloudy
12:56 PM 55.4 °F - 37.4 °F 51% 29.57 in 10.0 mi North 4.6 mph - N/A   Mostly Cloudy
1:16 PM 55.4 °F - 37.4 °F 51% 29.57 in 10.0 mi East 3.5 mph - N/A   Mostly Cloudy
1:36 PM 57.2 °F - 35.6 °F 44% 29.56 in 10.0 mi NW 8.1 mph - N/A   Mostly Cloudy
1:56 PM 57.2 °F - 37.4 °F 48% 29.56 in 10.0 mi NE 5.8 mph - N/A   Overcast
2:16 PM 57.2 °F - 37.4 °F 48% 29.56 in 10.0 mi WSW 4.6 mph - N/A   Overcast
2:36 PM 57.2 °F - 37.4 °F 48% 29.55 in 10.0 mi West 13.8 mph 18.4 mph N/A   Overcast
2:56 PM 55.4 °F - 37.4 °F 51% 29.55 in 10.0 mi West 12.7 mph - N/A   Overcast
3:16 PM 57.2 °F - 37.4 °F 48% 29.55 in 10.0 mi West 12.7 mph - N/A   Overcast
3:36 PM 57.2 °F - 37.4 °F 48% 29.54 in 10.0 mi West 9.2 mph - N/A   Mostly Cloudy
3:56 PM 59.0 °F - 37.4 °F 45% 29.54 in 10.0 mi West 11.5 mph - N/A   Overcast
4:16 PM 60.8 °F - 35.6 °F 39% 29.54 in 10.0 mi East 4.6 mph - N/A   Overcast
4:36 PM 59.0 °F - 35.6 °F 42% 29.54 in 10.0 mi ENE 8.1 mph - N/A   Overcast
4:56 PM 59.0 °F - 35.6 °F 42% 29.54 in 10.0 mi NNE 6.9 mph - N/A   Overcast
5:16 PM 59.0 °F - 35.6 °F 42% 29.54 in 10.0 mi Calm Calm - N/A   Overcast
5:36 PM 57.2 °F - 35.6 °F 44% 29.54 in 10.0 mi West 9.2 mph - N/A   Overcast
5:56 PM 57.2 °F - 37.4 °F 48% 29.55 in 10.0 mi West 9.2 mph - N/A   Overcast
6:16 PM 55.4 °F - 37.4 °F 51% 29.55 in 10.0 mi West 10.4 mph - N/A   Overcast
6:36 PM 55.4 °F - 37.4 °F 51% 29.55 in 10.0 mi West 10.4 mph - N/A   Overcast
6:56 PM 55.4 °F - 37.4 °F 51% 29.55 in 10.0 mi West 8.1 mph - N/A   Overcast
7:16 PM 53.6 °F - 39.2 °F 58% 29.55 in 10.0 mi West 6.9 mph - N/A   Overcast
7:36 PM 55.4 °F - 39.2 °F 54% 29.55 in 10.0 mi SW 5.8 mph - N/A   Overcast
7:56 PM 55.4 °F - 39.2 °F 54% 29.55 in 10.0 mi SW 4.6 mph - N/A   Mostly Cloudy
8:16 PM 55.4 °F - 39.2 °F 54% 29.56 in 10.0 mi West 4.6 mph - N/A   Overcast
8:36 PM 55.4 °F - 39.2 °F 54% 29.56 in 10.0 mi WNW 5.8 mph - N/A   Overcast
8:56 PM 55.4 °F - 37.4 °F 51% 29.57 in 10.0 mi WNW 3.5 mph - N/A   Overcast
9:16 PM 53.6 °F - 39.2 °F 58% 29.57 in 10.0 mi WNW 5.8 mph - N/A   Overcast
9:36 PM 53.6 °F - 39.2 °F 58% 29.58 in 10.0 mi West 9.2 mph - N/A   Overcast
9:56 PM 51.8 °F - 41.0 °F 67% 29.58 in 10.0 mi WNW 5.8 mph - N/A   Overcast
10:16 PM 50.0 °F - 42.8 °F 76% 29.59 in 10.0 mi West 3.5 mph - N/A   Overcast
10:36 PM 50.0 °F - 41.0 °F 71% 29.59 in 10.0 mi WSW 5.8 mph - N/A   Overcast
10:56 PM 48.2 °F - 41.0 °F 76% 29.59 in 10.0 mi WSW 3.5 mph - N/A   Overcast
11:36 PM 48.2 °F - 39.2 °F 71% 29.60 in 10.0 mi Calm Calm - N/A   Overcast
11:56 PM 48.2 °F - 39.2 °F 71% 29.60 in 10.0 mi West 3.5 mph - N/A   Overcast